Home > Weather > Tønsberg > Past weeks

Flag for Norway Past Weather in Tønsberg, Norway — Yesterday and Last 2 Weeks

Now
52 °F

Broken clouds.


Feels Like: 49 °F
Forecast: 53 / 61 °F
Wind: 8 mph from Southeast

Location: Oseberg

Current Time: May 29, 2016 at 9:56:17 AM

Latest Report: May 29, 2016 at 8:20 AM


Visibility: N/A

Pressure: 30.12 "Hg

Humidity: 88%

Dew Point: 48 °F

Location of TønsbergLocation

Past Weather in Tønsberg — Graph

°F

Tønsberg Temperature Yesterday

Maximum temperature yesterday: 48 °F (at 9:50 PM)
Minimum temperature yesterday: 41 °F (at 4:50 AM)
Average temperature yesterday: 44 °F

High & Low Weather Summary for the Past Weeks

 TemperatureHumidityPressure
High54 °F (May 22, 1:50 PM)100% (May 16, 9:50 PM)30.21 "Hg (May 16, 9:50 PM)
Low39 °F (May 18, 6:50 AM)50% (May 19, 11:20 AM)29.53 "Hg (May 20, 7:20 AM)
Average46 °F83%29.94 "Hg
* Reported May 14 8:20 AM — May 29 8:20 AM, Tønsberg, Weather by CustomWeather, © 2016

Note: Actual official high and low records may vary slightly from our data, if they occured in-between our weather recording intervals... More about our weather records

Advertising

Tønsberg Weather History for the Previous 24 Hours

Scroll right to see more
 ConditionsComfort  
Time TempWeatherWind HumidityBarometerVisibility
8:20 AM
Sun, May 29
52 °FBroken clouds.8 mph88%30.12 "HgN/A
7:50 AM52 °FPartly sunny.6 mph82%30.12 "HgN/A
7:20 AM54 °FPartly sunny.7 mph77%30.12 "HgN/A
6:50 AM52 °FPartly sunny.8 mph82%30.12 "HgN/A
5:50 AM52 °FPartly sunny.12 mph88%30.12 "HgN/A
4:50 AM52 °FPassing clouds.14 mph94%30.12 "HgN/A
3:50 AM52 °FPassing clouds.14 mph88%30.12 "HgN/A
2:50 AM50 °FPassing clouds.15 mph94%30.12 "HgN/A
2:20 AM50 °FPassing clouds.14 mph88%30.12 "HgN/A
1:50 AM50 °FSprinkles. Passing clouds.15 mph94%30.12 "HgN/A
12:50 AM48 °FPassing clouds.9 mph94%30.12 "HgN/A
11:50 PM
Sat, May 28
48 °FPassing clouds.10 mph94%30.12 "HgN/A
10:50 PM48 °FPartly sunny.10 mph87%30.12 "HgN/A
9:50 PM48 °FPartly sunny.9 mph87%30.12 "HgN/A
9:20 PM46 °FPartly sunny.10 mph93%30.12 "HgN/A
8:50 PM46 °FPartly sunny.12 mph93%30.12 "HgN/A
8:20 PM46 °FBroken clouds.10 mph93%30.12 "HgN/A
7:50 PM46 °FBroken clouds.9 mph87%30.12 "HgN/A
6:20 PM46 °FPartly sunny.10 mph87%30.12 "HgN/A
5:50 PM46 °FPartly sunny.9 mph87%30.12 "HgN/A
5:20 PM46 °FPartly sunny.8 mph87%30.12 "HgN/A
4:50 PM46 °FPartly sunny.6 mph87%30.12 "HgN/A
4:20 PM46 °FPartly sunny.6 mph87%30.12 "HgN/A
3:20 PM45 °FPartly sunny.7 mph87%30.12 "HgN/A
2:50 PM45 °FPartly sunny.6 mph93%30.12 "HgN/A
1:50 PM45 °FPartly sunny.7 mph87%30.12 "HgN/A
1:20 PM45 °FPartly sunny.7 mph87%30.12 "HgN/A
12:50 PM45 °FPartly sunny.8 mph87%30.12 "HgN/A
12:20 PM45 °FPartly sunny.7 mph87%30.12 "HgN/A
11:50 AM43 °FPartly sunny.7 mph100%30.12 "HgN/A
10:50 AM43 °FLow clouds.5 mph100%30.12 "HgN/A
10:20 AM45 °FLow clouds.5 mph93%30.15 "Hg6 mi
9:50 AM43 °FLow clouds.7 mph93%30.12 "HgN/A
9:20 AM43 °FLow clouds.6 mph93%30.12 "Hg6 mi
Weather by CustomWeather, © 2016

See weather overviewHow to use our weather pages